Year,Month,Day,Hour,Minute,Value (Times are PST for temperature in C)
2011,10,12,08,41,8.40
2011,10,12,08,42,8.40
2011,10,12,08,43,8.30
2011,10,12,08,44,8.30
2011,10,12,08,45,8.30
2011,10,12,08,46,8.30
2011,10,12,08,47,8.30
2011,10,12,08,48,8.30
2011,10,12,08,49,8.30
2011,10,12,08,50,8.30
2011,10,12,08,51,8.30
2011,10,12,08,52,8.40
2011,10,12,08,53,8.40
2011,10,12,08,54,8.40
2011,10,12,08,55,8.40
2011,10,12,08,56,8.30
2011,10,12,08,57,8.30
2011,10,12,08,58,8.30
2011,10,12,08,59,8.30
2011,10,12,09,00,8.30
2011,10,12,09,01,8.40
2011,10,12,09,02,8.40
2011,10,12,09,03,8.40
2011,10,12,09,04,8.40
2011,10,12,09,05,8.40
2011,10,12,09,06,8.40
2011,10,12,09,07,8.40
2011,10,12,09,08,8.40
2011,10,12,09,09,8.50
2011,10,12,09,10,8.50
2011,10,12,09,11,8.50
2011,10,12,09,12,8.50
2011,10,12,09,13,8.50
2011,10,12,09,14,8.50
2011,10,12,09,15,8.50
2011,10,12,09,16,8.60
2011,10,12,09,17,8.60
2011,10,12,09,18,8.60
2011,10,12,09,19,8.60
2011,10,12,09,20,8.60
2011,10,12,09,21,8.60
2011,10,12,09,22,8.60
2011,10,12,09,23,8.60
2011,10,12,09,24,8.70
2011,10,12,09,25,8.70
2011,10,12,09,26,8.70
2011,10,12,09,27,8.80
2011,10,12,09,28,8.80
2011,10,12,09,29,8.80
2011,10,12,09,30,8.90
2011,10,12,09,31,8.90
2011,10,12,09,32,8.90
2011,10,12,09,33,8.90
2011,10,12,09,34,8.90
2011,10,12,09,35,8.90
2011,10,12,09,36,8.90
2011,10,12,09,37,8.90
2011,10,12,09,38,9.00
2011,10,12,09,39,9.00
2011,10,12,09,40,9.10
2011,10,12,09,41,9.20
2011,10,12,09,42,9.20
2011,10,12,09,43,9.30
2011,10,12,09,44,9.30
2011,10,12,09,45,9.40
2011,10,12,09,46,9.40
2011,10,12,09,47,9.50
2011,10,12,09,48,9.50
2011,10,12,09,49,9.60
2011,10,12,09,50,9.50
2011,10,12,09,51,9.40
2011,10,12,09,52,9.40
2011,10,12,09,53,9.50
2011,10,12,09,54,9.50
2011,10,12,09,55,9.60
2011,10,12,09,56,9.60
2011,10,12,09,57,9.70
2011,10,12,09,58,9.80
2011,10,12,09,59,9.90
2011,10,12,10,00,10.00
2011,10,12,10,01,10.00
2011,10,12,10,02,10.10
2011,10,12,10,03,10.10
2011,10,12,10,04,10.20
2011,10,12,10,05,10.20
2011,10,12,10,06,10.20
2011,10,12,10,07,10.30
2011,10,12,10,08,10.30
2011,10,12,10,09,10.30
2011,10,12,10,10,10.30
2011,10,12,10,11,10.30
2011,10,12,10,12,10.40
2011,10,12,10,13,10.40
2011,10,12,10,14,10.40
2011,10,12,10,15,10.50
2011,10,12,10,16,10.50
2011,10,12,10,17,10.60
2011,10,12,10,18,10.60
2011,10,12,10,19,10.60
2011,10,12,10,20,10.70
2011,10,12,10,21,10.70
2011,10,12,10,22,10.70
2011,10,12,10,23,10.70
2011,10,12,10,24,10.80
2011,10,12,10,25,10.80
2011,10,12,10,26,10.80
2011,10,12,10,27,10.80
2011,10,12,10,28,10.90
2011,10,12,10,29,11.00
2011,10,12,10,30,11.10
2011,10,12,10,31,11.10
2011,10,12,10,32,11.20
2011,10,12,10,33,11.30
2011,10,12,10,34,11.30
2011,10,12,10,35,11.40
2011,10,12,10,36,11.50
2011,10,12,10,37,11.60
2011,10,12,10,38,11.60
2011,10,12,10,39,11.70
2011,10,12,10,40,11.80
2011,10,12,10,41,11.80
2011,10,12,10,42,11.90
2011,10,12,10,43,11.90
2011,10,12,10,44,12.00
2011,10,12,10,45,12.10
2011,10,12,10,46,12.10
2011,10,12,10,47,12.10
2011,10,12,10,48,12.20
2011,10,12,10,49,12.20
2011,10,12,10,50,12.20
2011,10,12,10,51,12.20
2011,10,12,10,52,12.30
2011,10,12,10,53,12.30
2011,10,12,10,54,12.30
2011,10,12,10,55,12.30
2011,10,12,10,56,12.30
2011,10,12,10,57,12.30
2011,10,12,10,58,12.30
2011,10,12,10,59,12.30
2011,10,12,11,00,12.20
2011,10,12,11,01,12.20
2011,10,12,11,02,12.10
2011,10,12,11,03,12.10
2011,10,12,11,04,12.00
2011,10,12,11,05,12.00
2011,10,12,11,06,11.90
2011,10,12,11,07,11.90
2011,10,12,11,08,11.90
2011,10,12,11,09,11.90
2011,10,12,11,10,11.90
2011,10,12,11,11,11.90
2011,10,12,11,12,11.90
2011,10,12,11,13,12.00
2011,10,12,11,14,12.00
2011,10,12,11,15,12.10
2011,10,12,11,16,12.10
2011,10,12,11,17,12.10
2011,10,12,11,18,12.20
2011,10,12,11,19,12.20
2011,10,12,11,20,12.20
2011,10,12,11,21,12.20
2011,10,12,11,22,12.20
2011,10,12,11,23,12.10
2011,10,12,11,24,12.10
2011,10,12,11,25,12.00
2011,10,12,11,26,12.00
2011,10,12,11,27,12.00
2011,10,12,11,28,11.90
2011,10,12,11,29,12.00
2011,10,12,11,30,11.90
2011,10,12,11,31,11.90
2011,10,12,11,32,11.90
2011,10,12,11,33,12.00
2011,10,12,11,34,11.90
2011,10,12,11,35,12.00
2011,10,12,11,36,12.00
2011,10,12,11,37,11.90
2011,10,12,11,38,11.90
2011,10,12,11,39,11.90
2011,10,12,11,40,11.90
2011,10,12,11,41,11.90
2011,10,12,11,42,11.80
2011,10,12,11,43,11.80
2011,10,12,11,44,11.70
2011,10,12,11,45,11.70
2011,10,12,11,46,11.60
2011,10,12,11,47,11.60
2011,10,12,11,48,11.50
2011,10,12,11,49,11.40
2011,10,12,11,50,11.40
2011,10,12,11,51,11.40
2011,10,12,11,52,11.40
2011,10,12,11,53,11.40
2011,10,12,11,54,11.40
2011,10,12,11,55,11.50
2011,10,12,11,56,11.50
2011,10,12,11,57,11.60
2011,10,12,11,58,11.60
2011,10,12,11,59,11.70
2011,10,12,12,00,11.70
2011,10,12,12,01,11.70
2011,10,12,12,02,11.70
2011,10,12,12,03,11.70
2011,10,12,12,04,11.70
2011,10,12,12,05,11.70
2011,10,12,12,06,11.80
2011,10,12,12,07,11.80
2011,10,12,12,08,11.80
2011,10,12,12,09,11.80
2011,10,12,12,10,11.90
2011,10,12,12,11,11.90
2011,10,12,12,12,11.90
2011,10,12,12,13,11.90
2011,10,12,12,14,11.90
2011,10,12,12,15,11.90
2011,10,12,12,16,12.00
2011,10,12,12,17,12.00
2011,10,12,12,18,12.10
2011,10,12,12,19,12.00
2011,10,12,12,20,12.00
2011,10,12,12,21,12.00
2011,10,12,12,22,12.00
2011,10,12,12,23,12.00
2011,10,12,12,24,12.00
2011,10,12,12,25,12.00
2011,10,12,12,26,11.90
2011,10,12,12,27,11.90
2011,10,12,12,28,12.00
2011,10,12,12,29,12.00
2011,10,12,12,30,12.10
2011,10,12,12,31,12.10
2011,10,12,12,32,12.10
2011,10,12,12,33,12.00
2011,10,12,12,34,11.80
2011,10,12,12,35,11.80
2011,10,12,12,36,11.70
2011,10,12,12,37,11.70
2011,10,12,12,38,11.80
2011,10,12,12,39,11.80
2011,10,12,12,40,11.80
2011,10,12,12,41,11.80
2011,10,12,12,42,11.80
2011,10,12,12,43,11.80
2011,10,12,12,44,11.80
2011,10,12,12,45,11.80
2011,10,12,12,46,11.80
2011,10,12,12,47,11.90
2011,10,12,12,48,11.90
2011,10,12,12,49,11.80
2011,10,12,12,50,11.80
2011,10,12,12,51,11.80
2011,10,12,12,52,11.70
2011,10,12,12,53,11.60
2011,10,12,12,54,11.60
2011,10,12,12,55,11.60
2011,10,12,12,56,11.50
2011,10,12,12,57,11.40
2011,10,12,12,58,11.40
2011,10,12,12,59,11.30
2011,10,12,13,00,11.30
2011,10,12,13,01,11.30
2011,10,12,13,02,11.30
2011,10,12,13,03,11.30
2011,10,12,13,04,11.30
2011,10,12,13,05,11.40
2011,10,12,13,06,11.40
2011,10,12,13,07,11.40
2011,10,12,13,08,11.40
2011,10,12,13,09,11.40
2011,10,12,13,10,11.50
2011,10,12,13,11,11.50
2011,10,12,13,12,11.60
2011,10,12,13,13,11.60
2011,10,12,13,14,11.60
2011,10,12,13,15,11.60
2011,10,12,13,16,11.60
2011,10,12,13,17,11.70
2011,10,12,13,18,11.70
2011,10,12,13,19,11.70
2011,10,12,13,20,11.70
2011,10,12,13,21,11.80
2011,10,12,13,22,11.80
2011,10,12,13,23,11.80
2011,10,12,13,24,11.90
2011,10,12,13,25,11.90
2011,10,12,13,26,11.90
2011,10,12,13,27,12.00
2011,10,12,13,28,12.00
2011,10,12,13,29,12.10
2011,10,12,13,30,12.10
2011,10,12,13,31,12.20
2011,10,12,13,32,12.20
2011,10,12,13,33,12.20
2011,10,12,13,34,12.30
2011,10,12,13,35,12.40
2011,10,12,13,36,12.40
2011,10,12,13,37,12.50
2011,10,12,13,38,12.50
2011,10,12,13,39,12.50
2011,10,12,13,40,12.40
2011,10,12,13,41,12.40
2011,10,12,13,42,12.30
2011,10,12,13,43,12.30
2011,10,12,13,44,12.30
2011,10,12,13,45,12.40
2011,10,12,13,46,12.40
2011,10,12,13,47,12.40
2011,10,12,13,48,12.30
2011,10,12,13,49,12.30
2011,10,12,13,50,12.30
2011,10,12,13,51,12.30
2011,10,12,13,52,12.20
2011,10,12,13,53,12.20
2011,10,12,13,54,12.20
2011,10,12,13,55,12.30
2011,10,12,13,56,12.30
2011,10,12,13,57,12.30
2011,10,12,13,58,12.30
2011,10,12,13,59,12.40
2011,10,12,14,00,12.40
2011,10,12,14,01,12.40
2011,10,12,14,02,12.40
2011,10,12,14,03,12.40
2011,10,12,14,04,12.40
2011,10,12,14,05,12.40
2011,10,12,14,06,12.40
2011,10,12,14,07,12.40
2011,10,12,14,08,12.50
2011,10,12,14,09,12.50
2011,10,12,14,10,12.50
2011,10,12,14,11,12.60
2011,10,12,14,12,12.60
2011,10,12,14,13,12.50
2011,10,12,14,14,12.50
2011,10,12,14,15,12.50
2011,10,12,14,16,12.60
2011,10,12,14,17,12.60
2011,10,12,14,18,12.60
2011,10,12,14,19,12.60
2011,10,12,14,20,12.60
2011,10,12,14,21,12.60
2011,10,12,14,22,12.60
2011,10,12,14,23,12.60
2011,10,12,14,24,12.60
2011,10,12,14,25,12.60
2011,10,12,14,26,12.60
2011,10,12,14,27,12.60
2011,10,12,14,28,12.60
2011,10,12,14,29,12.60
2011,10,12,14,30,12.70
2011,10,12,14,31,12.70
2011,10,12,14,32,12.80
2011,10,12,14,33,12.80
2011,10,12,14,34,12.80
2011,10,12,14,35,12.90
2011,10,12,14,36,12.80
2011,10,12,14,37,12.80
2011,10,12,14,38,12.90
2011,10,12,14,39,12.90
2011,10,12,14,40,12.90
2011,10,12,14,41,12.90
2011,10,12,14,42,12.90
2011,10,12,14,43,12.90
2011,10,12,14,44,12.90
2011,10,12,14,45,12.90
2011,10,12,14,46,13.00
2011,10,12,14,47,13.00
2011,10,12,14,48,13.00
2011,10,12,14,49,13.10
2011,10,12,14,50,13.00
2011,10,12,14,51,13.00
2011,10,12,14,52,13.00
2011,10,12,14,53,12.90
2011,10,12,14,54,12.90
2011,10,12,14,55,13.00
2011,10,12,14,56,13.00
2011,10,12,14,57,13.00
2011,10,12,14,58,13.00
2011,10,12,14,59,13.00
2011,10,12,15,00,12.90
2011,10,12,15,01,12.90
2011,10,12,15,02,12.90
2011,10,12,15,03,12.90
2011,10,12,15,04,12.90
2011,10,12,15,05,12.90
2011,10,12,15,06,13.00
2011,10,12,15,07,13.00
2011,10,12,15,08,13.10
2011,10,12,15,09,13.10
2011,10,12,15,10,13.10
2011,10,12,15,11,13.10
2011,10,12,15,12,13.20
2011,10,12,15,13,13.20
2011,10,12,15,14,13.20
2011,10,12,15,15,13.10
2011,10,12,15,16,13.20
2011,10,12,15,17,13.10
2011,10,12,15,18,13.10
2011,10,12,15,19,13.20
2011,10,12,15,20,13.20
2011,10,12,15,21,13.20
2011,10,12,15,22,13.20
2011,10,12,15,23,13.20
2011,10,12,15,24,13.20
2011,10,12,15,25,13.20
2011,10,12,15,26,13.20
2011,10,12,15,27,13.30
2011,10,12,15,28,13.30
2011,10,12,15,29,13.30
2011,10,12,15,30,13.30
2011,10,12,15,31,13.30
2011,10,12,15,32,13.30
2011,10,12,15,33,13.30
2011,10,12,15,34,13.30
2011,10,12,15,35,13.30
2011,10,12,15,36,13.30
2011,10,12,15,37,13.30
2011,10,12,15,38,13.30
2011,10,12,15,39,13.30
2011,10,12,15,40,13.30
2011,10,12,15,41,13.20
2011,10,12,15,42,13.20
2011,10,12,15,43,13.20
2011,10,12,15,44,13.20
2011,10,12,15,45,13.30
2011,10,12,15,46,13.30
2011,10,12,15,47,13.30
2011,10,12,15,48,13.30
2011,10,12,15,49,13.30
2011,10,12,15,50,13.30
2011,10,12,15,51,13.30
2011,10,12,15,52,13.30
2011,10,12,15,53,13.30
2011,10,12,15,54,13.30
2011,10,12,15,55,13.30
2011,10,12,15,56,13.30
2011,10,12,15,57,13.40
2011,10,12,15,58,13.40
2011,10,12,15,59,13.40
2011,10,12,16,00,13.40
2011,10,12,16,01,13.40
2011,10,12,16,02,13.40
2011,10,12,16,03,13.40
2011,10,12,16,04,13.30
2011,10,12,16,05,13.30
2011,10,12,16,06,13.30
2011,10,12,16,07,13.30
2011,10,12,16,08,13.30
2011,10,12,16,09,13.30
2011,10,12,16,10,13.30
2011,10,12,16,11,13.30
2011,10,12,16,12,13.30
2011,10,12,16,13,13.30
2011,10,12,16,14,13.20
2011,10,12,16,15,13.20
2011,10,12,16,16,13.20
2011,10,12,16,17,13.20
2011,10,12,16,18,13.20
2011,10,12,16,19,13.20
2011,10,12,16,20,13.20
2011,10,12,16,21,13.20
2011,10,12,16,22,13.20
2011,10,12,16,23,13.20
2011,10,12,16,24,13.20
2011,10,12,16,25,13.10
2011,10,12,16,26,13.10
2011,10,12,16,27,13.10
2011,10,12,16,28,13.10
2011,10,12,16,29,13.10
2011,10,12,16,30,13.10
2011,10,12,16,31,13.10
2011,10,12,16,32,13.00
2011,10,12,16,33,13.00
2011,10,12,16,34,13.00
2011,10,12,16,35,13.00
2011,10,12,16,36,13.00
2011,10,12,16,37,13.00
2011,10,12,16,38,13.00
2011,10,12,16,39,13.00
2011,10,12,16,40,13.00
2011,10,12,16,41,13.00
2011,10,12,16,42,13.10
2011,10,12,16,43,13.10
2011,10,12,16,44,13.10
2011,10,12,16,45,13.10
2011,10,12,16,46,13.10
2011,10,12,16,47,13.10
2011,10,12,16,48,13.20
2011,10,12,16,49,13.20
2011,10,12,16,50,13.20
2011,10,12,16,51,13.20
2011,10,12,16,52,13.10
2011,10,12,16,53,13.10
2011,10,12,16,54,13.20
2011,10,12,16,55,13.20
2011,10,12,16,56,13.20
2011,10,12,16,57,13.20
2011,10,12,16,58,13.30
2011,10,12,16,59,13.30
2011,10,12,17,00,13.30
2011,10,12,17,01,13.20
2011,10,12,17,02,13.20
2011,10,12,17,03,13.20
2011,10,12,17,04,13.20
2011,10,12,17,05,13.20
2011,10,12,17,06,13.20
2011,10,12,17,07,13.20
2011,10,12,17,08,13.20
2011,10,12,17,09,13.10
2011,10,12,17,10,13.10
2011,10,12,17,11,13.00
2011,10,12,17,12,12.90
2011,10,12,17,13,12.80
2011,10,12,17,14,12.70
2011,10,12,17,15,12.60
2011,10,12,17,16,12.50
2011,10,12,17,17,12.40
2011,10,12,17,18,12.40
2011,10,12,17,19,12.30
2011,10,12,17,20,12.30
2011,10,12,17,21,12.20
2011,10,12,17,22,12.20
2011,10,12,17,23,12.20
2011,10,12,17,24,12.10
2011,10,12,17,25,12.10
2011,10,12,17,26,12.10
2011,10,12,17,27,12.00
2011,10,12,17,28,12.00
2011,10,12,17,29,11.90
2011,10,12,17,30,11.80
2011,10,12,17,31,11.80
2011,10,12,17,32,11.70
2011,10,12,17,33,11.70
2011,10,12,17,34,11.60
2011,10,12,17,35,11.60
2011,10,12,17,36,11.60
2011,10,12,17,37,11.60
2011,10,12,17,38,11.60
2011,10,12,17,39,11.60
2011,10,12,17,40,11.60
2011,10,12,17,41,11.60
2011,10,12,17,42,11.60
2011,10,12,17,43,11.50
2011,10,12,17,44,11.50
2011,10,12,17,45,11.50
2011,10,12,17,46,11.50
2011,10,12,17,47,11.40
2011,10,12,17,48,11.40
2011,10,12,17,49,11.40
2011,10,12,17,50,11.40
2011,10,12,17,51,11.40
2011,10,12,17,52,11.30
2011,10,12,17,53,11.30
2011,10,12,17,54,11.30
2011,10,12,17,55,11.30
2011,10,12,17,56,11.30
2011,10,12,17,57,11.30
2011,10,12,17,58,11.30
2011,10,12,17,59,11.30
2011,10,12,18,00,11.30
2011,10,12,18,01,11.20
2011,10,12,18,02,11.20
2011,10,12,18,03,11.20
2011,10,12,18,04,11.20
2011,10,12,18,05,11.20
2011,10,12,18,06,11.20
2011,10,12,18,07,11.20
2011,10,12,18,08,11.20
2011,10,12,18,09,11.20
2011,10,12,18,10,11.20
2011,10,12,18,11,11.20
2011,10,12,18,12,11.20
2011,10,12,18,13,11.20
